Regional Weather Roundup
Issued by NWS

Home | Current Version | Previous Version | Text Only | Print | Product List | Glossary On
Versions: 1 2 3 4 5 6 7 8 9 10 11 12 13 14 15 16 17 18 19 20 21 22 23 24 25 26 27 28 29 30 31 32 33 34 35 36 37 38 39 40 41 42 43 44 45 46 47 48 49 50
000
ASUS45 KTFX 260910
RWRMT
MONTANA REGIONAL WEATHER ROUNDUP
NATIONAL WEATHER SERVICE GREAT FALLS MT
300 AM MDT WED JUL 26 2017

NOTE: "FAIR" INDICATES FEW OR NO CLOUDS BELOW 12000 FEET WITH NO
SIGNIFICANT WEATHER AND/OR OBSTRUCTIONS TO VISIBILITY.

MTZ001>007-043-261000-
WEST OF THE DIVIDE

CITY           SKY/WX    TMP DP  RH WIND       PRES   REMARKS
KALISPELL      CLEAR     55  43  63 NW6       30.03S
MISSOULA       CLEAR     58  36  43 CALM      30.07R
BUTTE          CLEAR     56  45  66 CALM      30.21R
MULLAN PASS    PTCLDY    65  31  28 CALM      30.22S
ANACONDA         N/A     55  36  47 SW6       30.17S
DEER LODGE       N/A     57  41  54 SW3       30.17S
EUREKA           N/A     52  34  50 MISG      30.05R
HAMILTON         N/A     61  41  48 S5        30.08S
LIBBY            N/A     54  36  50 SE3       30.04S
$$

MTZ008-052>055-261000-
SOUTHWEST MONTANA

CITY           SKY/WX    TMP DP  RH WIND       PRES   REMARKS
BOZEMAN        PTCLDY    62  48  60 SW6       30.14R
DILLON         CLEAR     59  47  64 S12       30.18S
W YELLOWSTONE  CLOUDY    43  41  93 CALM      30.31F
ENNIS          CLEAR     59  48  67 SE5       30.24S
THREE FORKS      N/A     57  49  75 CALM      30.11R
$$

MTZ009-010-012-014-046-048-049-054-261000-
EAST SLOPES AND CENTRAL MONTANA

CITY           SKY/WX    TMP DP  RH WIND       PRES   REMARKS
CUT BANK       CLEAR     50  40  68 W6        30.14F
GREAT FALLS    CLOUDY    57  38  48 CALM      30.10S
MALMSTROM AFB  CLOUDY    55  40  56 CALM      30.10R
HELENA         CLEAR     67  40  37 W8        30.12R
CHOTEAU          N/A     55  37  50 W5        30.15S
$$

MTZ011-013-016-021-045-047-050-051-261000-
NORTH CENTRAL MONTANA

CITY           SKY/WX    TMP DP  RH WIND       PRES   REMARKS
HAVRE          CLEAR     61  42  49 NE14      30.08S
LEWISTOWN      PTCLDY    55  42  61 S3        30.13S
N BAR RANCH      N/A     54  41  62 CALM      30.19S
CHINOOK          N/A     61  45  55 CALM      30.10R
$$

MTZ017>020-022>027-061-062-261000-
NORTHEAST MONTANA

CITY           SKY/WX    TMP DP  RH WIND       PRES   REMARKS
GLASGOW        CLEAR     59  44  57 E9        30.10R
JORDAN           N/A     55  37  50 CALM      30.10R
SIDNEY         PTCLDY    61  45  55 N6        30.11R
WOLF POINT     CLEAR     59  42  53 E6        30.11R
MALTA          CLOUDY    57  46  67 E5        30.10R
PLENTYWOOD       N/A     61  50  67 CALM      30.12R
POPLAR           N/A     59  43  55 N5        30.12R
$$

MTZ028>42-056>058-261000-
SOUTHCENTRAL AND SOUTHEAST MONTANA

CITY           SKY/WX    TMP DP  RH WIND       PRES   REMARKS
BAKER          CLEAR     63  44  50 SE3       30.12R
BILLINGS       CLEAR     63  45  51 CALM      30.13S
LIVINGSTON     CLEAR     52  44  74 W7        30.18S
MILES CITY     PTCLDY    67  40  37 NE8       30.08F
BIG TIMBER     CLEAR     52  45  76 CALM      30.19S
FORSYTH          N/A     63  43  48 CALM      30.08S
LAUREL           N/A     58  45  62 W1        30.11F
$$

REGIONAL REPORTS...DAKOTAS

CITY           SKY/WX    TMP DP  RH WIND       PRES   REMARKS
WILLISTON      CLEAR     56  47  71 N3        30.12R
MINOT          CLEAR     60  54  80 SW6       30.08R
DICKINSON      CLEAR     60  49  66 NE8       30.10S
BEACH            N/A     61  48  63 SE5       30.15S
CROSBY           N/A     50  50 100 SW6       30.12S
TIOGA            N/A     52  52 100 CALM      30.14R
WATFORD CITY     N/A     55  45  67 CALM      30.11S
BISMARCK       CLOUDY    62  56  80 CALM      30.08R
GRAND FORKS    MOCLDY    61  59  93 W6        29.98R
FARGO          CLOUDY    64  58  80 NW5       29.98S
BUFFALO SD       N/A     67  57  70 W5        30.06F
RAPID CITY     CLOUDY    70  52  52 NW10      30.11F
$$

REGIONAL REPORTS...WYOMING/IDAHO/WASHINGTON

CITY           SKY/WX    TMP DP  RH WIND       PRES   REMARKS
GILLETTE       CLOUDY    62  60  93 NW6       30.17R
SHERIDAN       CLOUDY    58  55  90 W6        30.16R
BUFFALO WY     CLOUDY    63  55  75 W3        30.20S
CODY           CLEAR     57  52  83 CALM      30.21F
YELLOWSTONE LA   N/A     41  41 100 CALM      30.40S
IDAHO FALLS    MOCLDY    64  54  69 NE7       30.16F
BOISE          MOCLDY    79  51  37 SE9       30.02R
SPOKANE        PTCLDY    66  38  35 CALM      30.00S
$$

REGIONAL REPORTS...ALBERTA

CITY           SKY/WX    TMP DP  RH WIND       PRES   REMARKS
EDMONTON       CLEAR     57  52  82 SW5       30.05S
CALGARY        PTCLDY    57  45  62 S6        30.12F
LETHBRIDGE     CLEAR     48  43  81 W7        30.11S
MEDICINE HAT   MOCLDY    52  46  82 VRB2      30.09S
WATERTON GATE    N/A     41  39  93 SW5         N/A
MILK RIVER       N/A     48  45  87 NW3         N/A
$$

REGIONAL REPORTS...SASKATCHEWAN

CITY           SKY/WX    TMP DP  RH WIND       PRES   REMARKS
SWIFT CURRENT  CLEAR     52  46  82 S8        30.12R
REGINA         CLEAR     50  48  93 S5        30.10F
SASKATOON      CLEAR     48  45  87 CALM      30.09S
CYPRESS HILLS    N/A     55  37  50 SE5         N/A
ROCKGLEN         N/A     57  45  62 E2          N/A
ASSINIBOIA       N/A     52  52 100 S5          N/A
$$



USA.gov is the U.S. government's official web portal to all federal, state and local government web resources and services.